When you browse on this site, cookies collect data to enhance your experience and personalize the content and advertising you see.
Visit our Privacy Policy to learn more. By continuing to use the site, you agree to this use of cookies and data.
  • în România
  • Lista ţărilor
  • Pe 7 zile
  • Temperatura apei
  • Meteo pe hartă
  • Widget-uri
  • user-avatar
    Intrare

    Meteo pe oră la Kurytyba

    Astăzi, 19 Ianuarie, Duminică

    Timp Temperatura Precipitaţii Vânt Presiune Umiditate
    00:00 +16°C° 0 mm 2 m/s 683 mmHg 94%
    01:00 +16°C° 0 mm 1 m/s 683 mmHg 93%
    02:00 +16°C° 0 mm 1 m/s 683 mmHg 93%
    03:00 +16°C° 0 mm 1 m/s 683 mmHg 91%
    04:00 +16°C° 0 mm 1 m/s 683 mmHg 92%
    05:00 +16°C° 0 mm 1 m/s 683 mmHg 93%
    06:00 +16°C° 0 mm 1 m/s 683 mmHg 94%
    07:00 +19°C° 0 mm 1 m/s 683 mmHg 86%
    08:00 +20°C° 0 mm 1 m/s 684 mmHg 78%
    09:00 +22°C° 0 mm 1 m/s 685 mmHg 70%
    10:00 +24°C° 0 mm 2 m/s 685 mmHg 66%
    11:00 +25°C° 0 mm 2 m/s 685 mmHg 62%
    12:00 +26°C° 0 mm 2 m/s 685 mmHg 58%
    13:00 +26°C° 0 mm 2 m/s 684 mmHg 58%
    14:00 +27°C° 0 mm 2 m/s 684 mmHg 58%
    15:00 +27°C° 0 mm 2 m/s 683 mmHg 58%
    16:00 +26°C° 0.1 mm 2 m/s 683 mmHg 65%
    17:00 +24°C° 0.1 mm 2 m/s 682 mmHg 71%
    18:00 +22°C° 0.1 mm 3 m/s 682 mmHg 78%
    19:00 +21°C° 0 mm 2 m/s 682 mmHg 83%
    20:00 +20°C° 0 mm 2 m/s 682 mmHg 87%
    21:00 +19°C° 0 mm 2 m/s 682 mmHg 92%
    22:00 +19°C° 0 mm 2 m/s 682 mmHg 91%
    23:00 +19°C° 0 mm 2 m/s 682 mmHg 91%

    Mâine, 20 Ianuarie, Luni

    Timp Temperatura Precipitaţii Vânt Presiune Umiditate
    00:00 +18°C° 0 mm 2 m/s 682 mmHg 90%
    01:00 +19°C° 0 mm 1 m/s 682 mmHg 90%
    02:00 +19°C° 0 mm 1 m/s 682 mmHg 89%
    03:00 +19°C° 0 mm 1 m/s 681 mmHg 89%
    04:00 +19°C° 0 mm 1 m/s 681 mmHg 89%
    05:00 +19°C° 0 mm 1 m/s 681 mmHg 90%
    06:00 +19°C° 0 mm 1 m/s 681 mmHg 90%
    07:00 +20°C° 0 mm 1 m/s 682 mmHg 86%
    08:00 +21°C° 0 mm 1 m/s 682 mmHg 81%
    09:00 +22°C° 0 mm 1 m/s 683 mmHg 76%
    10:00 +24°C° 0 mm 1 m/s 683 mmHg 69%
    11:00 +25°C° 0 mm 1 m/s 683 mmHg 62%
    12:00 +27°C° 0 mm 1 m/s 683 mmHg 55%
    13:00 +27°C° 0 mm 2 m/s 682 mmHg 53%
    14:00 +28°C° 0 mm 2 m/s 682 mmHg 52%
    15:00 +29°C° 0 mm 3 m/s 681 mmHg 51%
    16:00 +27°C° 0 mm 3 m/s 681 mmHg 58%
    17:00 +26°C° 0 mm 2 m/s 680 mmHg 65%
    18:00 +25°C° 0 mm 2 m/s 679 mmHg 72%
    19:00 +23°C° 0 mm 2 m/s 680 mmHg 78%
    20:00 +21°C° 0 mm 2 m/s 680 mmHg 84%
    21:00 +19°C° 0 mm 2 m/s 680 mmHg 90%
    22:00 +19°C° 0 mm 2 m/s 680 mmHg 90%
    23:00 +18°C° 0 mm 2 m/s 681 mmHg 91%

    Poimâine, 21 Ianuarie, Marţi

    Timp Temperatura Precipitaţii Vânt Presiune Umiditate
    00:00 +18°C° 0 mm 2 m/s 681 mmHg 91%
    01:00 +19°C° 0 mm 1 m/s 680 mmHg 90%
    02:00 +19°C° 0 mm 1 m/s 680 mmHg 89%
    03:00 +19°C° 0 mm 1 m/s 679 mmHg 88%
    04:00 +18°C° 0 mm 1 m/s 679 mmHg 89%
    05:00 +18°C° 0 mm 1 m/s 679 mmHg 89%
    06:00 +18°C° 0 mm 1 m/s 679 mmHg 90%
    07:00 +19°C° 0 mm 1 m/s 680 mmHg 83%
    08:00 +20°C° 0 mm 1 m/s 680 mmHg 76%
    09:00 +22°C° 0 mm 1 m/s 680 mmHg 69%
    10:00 +24°C° 0 mm 1 m/s 680 mmHg 61%
    11:00 +25°C° 0 mm 2 m/s 680 mmHg 52%
    12:00 +27°C° 0 mm 2 m/s 680 mmHg 44%
    13:00 +28°C° 0 mm 2 m/s 680 mmHg 42%
    14:00 +28°C° 0 mm 2 m/s 679 mmHg 40%
    15:00 +29°C° 0 mm 2 m/s 679 mmHg 39%
    16:00 +28°C° 0 mm 2 m/s 678 mmHg 46%
    17:00 +26°C° 0 mm 3 m/s 678 mmHg 54%
    18:00 +24°C° 0 mm 3 m/s 677 mmHg 62%
    19:00 +22°C° 0 mm 3 m/s 677 mmHg 71%
    20:00 +20°C° 0 mm 2 m/s 678 mmHg 81%
    21:00 +18°C° 0 mm 2 m/s 678 mmHg 90%
    22:00 +17°C° 0 mm 2 m/s 678 mmHg 91%
    23:00 +18°C° 0 mm 1 m/s 678 mmHg 91%

    22 Ianuarie, Miercuri

    Timp Temperatura Precipitaţii Vânt Presiune Umiditate
    00:00 +18°C° 0 mm 1 m/s 678 mmHg 92%
    01:00 +18°C° 0 mm 1 m/s 678 mmHg 92%
    02:00 +16°C° 0 mm 1 m/s 677 mmHg 93%
    03:00 +15°C° 0 mm 0 m/s 677 mmHg 94%
    04:00 +16°C° 0 mm 0 m/s 677 mmHg 94%
    05:00 +18°C° 0 mm 1 m/s 677 mmHg 93%
    06:00 +18°C° 0 mm 1 m/s 677 mmHg 93%
    07:00 +19°C° 0 mm 1 m/s 677 mmHg 92%
    08:00 +19°C° 0 mm 1 m/s 678 mmHg 91%
    09:00 +20°C° 0 mm 1 m/s 678 mmHg 89%
    10:00 +20°C° 0 mm 1 m/s 678 mmHg 88%
    11:00 +20°C° 0 mm 1 m/s 678 mmHg 86%
    12:00 +21°C° 0 mm 1 m/s 678 mmHg 85%
    13:00 +20°C° 0.4 mm 1 m/s 677 mmHg 88%
    14:00 +20°C° 0.4 mm 1 m/s 677 mmHg 91%
    15:00 +18°C° 0.4 mm 2 m/s 677 mmHg 94%
    16:00 +18°C° 0.4 mm 2 m/s 677 mmHg 95%
    17:00 +18°C° 0.4 mm 2 m/s 677 mmHg 95%
    18:00 +18°C° 0.4 mm 2 m/s 677 mmHg 95%
    19:00 +17°C° 0.3 mm 2 m/s 677 mmHg 95%
    20:00 +17°C° 0.3 mm 2 m/s 677 mmHg 95%
    21:00 +16°C° 0.3 mm 2 m/s 677 mmHg 95%
    22:00 +16°C° 0 mm 2 m/s 677 mmHg 95%
    23:00 +16°C° 0 mm 2 m/s 677 mmHg 95%

    23 Ianuarie, Joi

    Timp Temperatura Precipitaţii Vânt Presiune Umiditate
    00:00 +16°C° 0 mm 2 m/s 677 mmHg 95%
    01:00 +16°C° 0 mm 2 m/s 676 mmHg 96%
    02:00 +16°C° 0 mm 1 m/s 676 mmHg 96%
    03:00 +16°C° 0 mm 1 m/s 675 mmHg 96%
    04:00 +16°C° 0 mm 1 m/s 675 mmHg 95%
    05:00 +16°C° 0 mm 1 m/s 676 mmHg 95%
    06:00 +16°C° 0 mm 1 m/s 676 mmHg 95%
    07:00 +16°C° 0.2 mm 1 m/s 676 mmHg 95%
    08:00 +16°C° 0.2 mm 1 m/s 676 mmHg 95%
    09:00 +18°C° 0.2 mm 1 m/s 676 mmHg 95%
    10:00 +19°C° 0.1 mm 1 m/s 676 mmHg 89%
    11:00 +19°C° 0.1 mm 2 m/s 676 mmHg 83%
    12:00 +21°C° 0.1 mm 2 m/s 677 mmHg 78%
    13:00 +21°C° 0.4 mm 2 m/s 676 mmHg 78%
    14:00 +21°C° 0.4 mm 2 m/s 676 mmHg 78%
    15:00 +21°C° 0.4 mm 2 m/s 675 mmHg 78%
    16:00 +21°C° 0.1 mm 2 m/s 675 mmHg 79%
    17:00 +20°C° 0.1 mm 2 m/s 675 mmHg 81%
    18:00 +20°C° 0.1 mm 2 m/s 675 mmHg 83%
    19:00 +19°C° 0 mm 2 m/s 675 mmHg 86%
    20:00 +18°C° 0 mm 2 m/s 675 mmHg 90%
    21:00 +18°C° 0 mm 1 m/s 675 mmHg 94%
    22:00 +18°C° 0 mm 1 m/s 675 mmHg 94%
    23:00 +16°C° 0 mm 1 m/s 675 mmHg 94%

    24 Ianuarie, Vineri

    Timp Temperatura Precipitaţii Vânt Presiune Umiditate
    00:00 +16°C° 0 mm 1 m/s 675 mmHg 94%
    01:00 +16°C° 0 mm 1 m/s 674 mmHg 94%
    02:00 +16°C° 0 mm 1 m/s 674 mmHg 93%
    03:00 +16°C° 0 mm 1 m/s 674 mmHg 93%
    04:00 +16°C° 0 mm 1 m/s 674 mmHg 93%
    05:00 +16°C° 0 mm 1 m/s 674 mmHg 93%
    06:00 +15°C° 0 mm 1 m/s 674 mmHg 93%
    07:00 +18°C° 0 mm 1 m/s 675 mmHg 87%
    08:00 +19°C° 0 mm 1 m/s 675 mmHg 80%
    09:00 +20°C° 0 mm 1 m/s 676 mmHg 74%
    10:00 +22°C° 0.1 mm 1 m/s 676 mmHg 68%
    11:00 +24°C° 0.1 mm 1 m/s 676 mmHg 62%
    12:00 +25°C° 0.1 mm 1 m/s 677 mmHg 57%
    13:00 +25°C° 1.1 mm 1 m/s 676 mmHg 62%
    14:00 +25°C° 1.1 mm 1 m/s 676 mmHg 67%
    15:00 +25°C° 1.1 mm 1 m/s 675 mmHg 72%
    16:00 +24°C° 0.8 mm 2 m/s 675 mmHg 78%
    17:00 +23°C° 0.8 mm 2 m/s 675 mmHg 83%
    18:00 +20°C° 0.8 mm 2 m/s 675 mmHg 89%
    19:00 +20°C° 0.1 mm 2 m/s 676 mmHg 91%
    20:00 +19°C° 0.1 mm 2 m/s 676 mmHg 93%
    21:00 +19°C° 0.1 mm 1 m/s 677 mmHg 95%
    22:00 +18°C° 0 mm 1 m/s 677 mmHg 95%
    23:00 +18°C° 0 mm 1 m/s 677 mmHg 95%
    Arată mai mult